Location: Black Forest
(43.4794°N, 75.0081°W)
Time: 16:35:28
(UTC-05:00)

ISS - All Passes

Search period start: 06 March 2015 00:00
Search period end: 16 March 2015 01:00
Orbit: 396 x 408 km, 51.6° (Epoch: 06 March)

Date Brightness Start Highest point End Pass type
(mag) Time Alt. Az. Time Alt. Az. Time Alt. Az.
06 Mar - 06:33:33 10° SSE 06:35:11 14° SE 06:36:55 10° E daylight
06 Mar - 08:08:03 10° WSW 08:11:16 79° NNW 08:14:30 10° NE daylight
06 Mar - 09:45:25 10° WNW 09:48:05 23° NNW 09:50:43 10° NE daylight
06 Mar - 11:22:47 10° NW 11:25:16 20° N 11:27:46 10° ENE daylight
06 Mar - 12:59:04 10° NW 13:02:14 51° NNE 13:05:24 10° ESE daylight
06 Mar - 14:35:53 10° W 14:38:29 22° SW 14:41:03 10° S daylight
07 Mar - 07:15:12 10° SW 07:18:22 56° SE 07:21:33 10° ENE daylight
07 Mar - 08:52:06 10° W 08:54:58 29° NNW 08:57:51 10° NE daylight
07 Mar - 10:29:43 10° NW 10:32:07 19° N 10:34:31 10° NE daylight
07 Mar - 12:06:13 10° NW 12:09:12 33° NNE 12:12:12 10° E daylight
07 Mar - 13:42:38 10° WNW 13:45:41 40° SW 13:48:45 10° SSE daylight
08 Mar - 07:22:41 10° SSW 07:25:32 29° SE 07:28:24 10° ENE daylight
08 Mar - 08:58:48 10° W 09:01:53 41° NNW 09:04:58 10° NE daylight
08 Mar - 10:36:29 10° NW 10:38:55 19° N 10:41:21 10° NE daylight
08 Mar - 12:13:20 10° NW 12:16:05 25° NNE 12:18:51 10° ENE daylight
08 Mar - 13:49:34 10° WNW 13:52:48 78° SW 13:56:02 10° SE daylight
09 Mar - 06:30:40 10° S 06:32:43 16° SE 06:34:50 10° E visible
09 Mar - 08:05:37 10° WSW 08:08:50 67° NNW 08:12:04 10° NE daylight
09 Mar - 09:43:06 10° WNW 09:45:42 21° N 09:48:17 10° NE daylight
09 Mar - 11:20:21 10° NW 11:22:54 21° N 11:25:27 10° ENE daylight
09 Mar - 12:56:36 10° NW 12:59:49 59° NNE 13:03:00 10° ESE daylight
09 Mar - 14:33:37 10° W 14:35:59 19° SW 14:38:18 10° S daylight
10 Mar - 07:12:38 10° SW 07:15:50 67° SE 07:19:03 10° ENE daylight
10 Mar - 08:49:40 10° WNW 08:52:30 26° NNW 08:55:18 10° NE daylight
10 Mar - 10:27:15 10° NW 10:29:39 19° N 10:32:04 10° NE daylight
10 Mar - 12:03:40 10° NW 12:06:42 37° NNE 12:09:45 10° E daylight
10 Mar - 13:40:09 10° WNW 13:43:07 34° SW 13:46:05 10° SSE daylight
11 Mar - 06:19:55 10° SSW 06:22:53 35° SE 06:25:53 10° ENE visible
11 Mar - 07:56:16 10° W 07:59:18 36° NNW 08:02:21 10° NE daylight
11 Mar - 09:33:57 10° NW 09:36:22 19° N 09:38:46 10° NE daylight
11 Mar - 11:10:42 10° NW 11:13:31 27° NNE 11:16:20 10° ENE daylight
11 Mar - 12:46:57 10° WNW 12:50:10 66° SW 12:53:22 10° SE daylight
12 Mar - 05:27:37 10° S 05:29:57 19° SE 05:32:22 10° E visible
12 Mar - 07:02:57 10° WSW 07:06:09 58° NNW 07:09:21 10° NE daylight
12 Mar - 08:40:30 10° WNW 08:43:03 21° N 08:45:35 10° NE daylight
12 Mar - 10:17:39 10° NW 10:20:15 22° N 10:22:50 10° ENE daylight
12 Mar - 11:53:52 10° NW 11:57:05 68° NNE 12:00:19 10° ESE daylight
12 Mar - 13:31:08 10° W 13:33:12 16° SW 13:35:13 10° S daylight
13 Mar - 04:37:03 10° SE 04:37:04 10° SE 04:37:14 10° SE visible
13 Mar - 06:09:48 10° SW 06:13:02 79° SSE 06:16:17 10° ENE visible
13 Mar - 07:46:59 10° WNW 07:49:44 25° NNW 07:52:29 10° NE daylight
13 Mar - 09:24:29 10° NW 09:26:54 19° N 09:29:21 10° NE daylight
13 Mar - 11:00:50 10° NW 11:03:55 41° NNE 11:07:01 10° E daylight
13 Mar - 12:37:24 10° WNW 12:40:16 29° SW 12:43:06 10° SSE daylight
14 Mar - 05:16:54 10° SSW 05:19:59 41° SE 05:23:03 10° ENE visible
14 Mar - 06:53:27 10° W 06:56:27 33° NNW 06:59:26 10° NE daylight
14 Mar - 08:31:08 10° NW 08:33:32 19° N 08:35:55 10° NE daylight
14 Mar - 10:07:47 10° NW 10:10:39 29° NNE 10:13:32 10° E daylight
14 Mar - 11:44:04 10° WNW 11:47:14 55° SW 11:50:24 10° SE daylight
15 Mar - 04:24:22 10° S 04:26:57 22° SE 04:29:34 10° E visible
15 Mar - 06:00:01 10° WSW 06:03:11 51° NNW 06:06:21 10° NE visible
15 Mar - 07:37:37 10° WNW 07:40:08 20° N 07:42:37 10° NE daylight
15 Mar - 09:14:40 10° NW 09:17:18 23° NNE 09:19:57 10° ENE daylight
15 Mar - 10:50:52 10° NW 10:54:06 79° NNE 10:57:20 10° ESE daylight
15 Mar - 12:28:26 10° W 12:30:09 13° SW 12:31:46 10° SSW daylight
